FW7773 Weather Reports


Display with metric or nautical units.
time (UTC)temp
F
wind
direction
speed
MPH
gust
MPH
rain 1hr
in
rain 24hr
in
rain mn
in
humidity
%
barometer
mb
20260505201551 75 182 6.0 12.0 0.00 0.00 0.00 66 1016.3
20260505200026 75 171 5.0 12.0 0.00 0.00 0.00 64 1016.6
20260505194503 76 221 5.0 14.0 0.00 0.00 0.00 64 1016.9
20260505193042 77 51 5.0 11.0 0.00 0.00 0.00 62 1017.3
20260505191509 76 177 5.0 13.0 0.00 0.00 0.00 63 1017.6
20260505190045 76 185 5.0 11.0 0.00 0.00 0.00 62 1017.7
20260505184518 76 200 5.0 11.0 0.00 0.00 0.00 60 1017.6
20260505183053 75 196 5.0 14.0 0.00 0.00 0.00 60 1017.4
20260505181529 75 161 6.0 12.0 0.00 0.00 0.00 63 1017.6
20260505180100 75 196 5.0 11.0 0.00 0.00 0.00 64 1017.4
20260505174531 75 172 5.0 14.0 0.00 0.00 0.00 65 1017.3
20260505173005 75 84 4.0 14.0 0.00 0.00 0.00 65 1017.4
20260505171543 75 221 6.0 12.0 0.00 0.00 0.00 65 1017.8
20260505170012 75 200 5.0 12.0 0.00 0.00 0.00 65 1017.9
20260505164558 74 115 4.0 12.0 0.00 0.00 0.00 65 1018.0
20260505163020 75 240 5.0 13.0 0.00 0.00 0.00 66 1018.0
20260505161559 75 169 6.0 13.0 0.00 0.00 0.00 65 1018.2
20260505153036 74 242 5.0 15.0 0.00 0.00 0.00 63 1018.3
20260505151508 74 235 4.0 12.0 0.00 0.00 0.00 64 1018.1
20260505124559 70 178 3.0 6.0 0.00 0.00 0.00 75 1017.5
20260505123023 70 247 1.0 6.0 0.00 0.00 0.00 76 1017.4
20260505121551 70 355 2.0 5.0 0.00 0.00 0.00 77 1017.3
20260505120016 69 242 0.0 2.0 0.00 0.00 0.00 78 1017.2
20260505114537 67 196 0.0 4.0 0.00 0.00 0.00 80 1017.0
20260505113009 66 211 0.0 3.0 0.00 0.00 0.00 82 1017.0
20260505111543 65 24 0.0 4.0 0.00 0.00 0.00 85 1016.8
20260505101506 64 267 1.0 3.0 0.00 0.00 0.00 84 1016.3
20260505100043 63 293 0.0 3.0 0.00 0.00 0.00 84 1016.2
20260505094519 63 180 0.0 2.0 0.00 0.00 0.00 84 1016.2
20260505093102 64 288 0.0 0.0 0.00 0.00 0.00 84 1016.0
20260505091530 64 178 0.0 3.0 0.00 0.00 0.00 84 1016.0
20260505090001 64 229 0.0 4.0 0.00 0.00 0.00 84 1015.8
20260505084544 64 187 0.0 4.0 0.00 0.00 0.00 83 1015.7
20260505083009 65 37 1.0 6.0 0.00 0.00 0.00 82 1015.7
20260505081551 66 205 1.0 7.0 0.00 0.00 0.00 81 1015.5
20260505080022 65 274 2.0 7.0 0.00 0.00 0.00 82 1015.5
20260505074556 65 277 2.0 6.0 0.00 0.00 0.00 83 1015.5
20260505073026 65 278 1.0 6.0 0.00 0.00 0.00 82 1015.5
20260505071602 65 346 0.0 5.0 0.00 0.00 0.00 82 1015.4
20260505070041 65 138 3.0 8.0 0.00 0.00 0.00 83 1015.7
20260505064504 66 187 2.0 6.0 0.00 0.00 0.00 82 1015.7
20260505063039 66 273 1.0 7.0 0.00 0.00 0.00 81 1015.8
20260505061510 67 141 2.0 10.0 0.00 0.00 0.00 79 1016.1
20260505060039 67 262 3.0 10.0 0.00 0.00 0.00 80 1016.3
20260505054506 66 218 1.0 8.0 0.00 0.00 0.00 81 1016.4
20260505053105 66 217 1.0 9.0 0.00 0.00 0.00 81 1016.6
20260505051508 66 355 3.0 8.0 0.00 0.00 0.00 83 1016.7
20260505041515 66 327 0.0 5.0 0.00 0.00 0.00 82 1016.9
20260505040044 66 45 0.0 4.0 0.00 0.00 0.00 81 1017.0
20260505034524 66 60 0.0 5.0 0.00 0.00 0.00 79 1016.9
20260505033055 66 157 0.0 4.0 0.00 0.00 0.00 79 1016.8
20260505031529 66 170 0.0 5.0 0.00 0.00 0.00 79 1016.9
20260505030006 66 211 0.0 5.0 0.00 0.00 0.00 79 1016.9
20260505024543 66 155 0.0 4.0 0.00 0.00 0.00 79 1016.9
20260505023018 66 280 1.0 5.0 0.00 0.00 0.00 78 1016.8
20260505021558 66 265 0.0 2.0 0.00 0.00 0.00 77 1016.8
20260505020033 67 194 1.0 4.0 0.00 0.00 0.00 75 1016.7
20260505014510 67 261 0.0 4.0 0.00 0.00 0.00 73 1016.6
20260505013046 67 201 1.0 6.0 0.00 0.00 0.00 72 1016.7
20260505011544 67 35 1.0 8.0 0.00 0.00 0.00 71 1016.5
20260505010003 68 223 0.0 5.0 0.00 0.00 0.00 70 1016.5
20260505004538 68 200 1.0 8.0 0.00 0.00 0.00 69 1016.3
20260505003010 68 162 3.0 9.0 0.00 0.00 0.00 68 1016.3
20260505001604 68 217 2.0 8.0 0.00 0.00 0.00 67 1016.3
20260505000031 69 200 2.0 9.0 0.00 0.00 0.00 66 1016.4
20260504234600 69 185 2.0 7.0 0.00 0.00 0.00 64 1016.3
20260504233042 70 178 4.0 12.0 0.00 0.00 0.00 61 1016.1
20260504231511 71 225 6.0 13.0 0.00 0.00 0.00 57 1016.2
20260504230045 71 259 6.0 14.0 0.00 0.00 0.00 57 1016.1
20260504224517 72 200 4.0 15.0 0.00 0.00 0.00 57 1016.3
20260504223054 72 221 6.0 12.0 0.00 0.00 0.00 55 1016.3
20260504221528 72 255 6.0 16.0 0.00 0.00 0.00 54 1016.4
20260504220001 73 264 4.0 12.0 0.00 0.00 0.00 56 1016.4
20260504214538 72 211 7.0 14.0 0.00 0.00 0.00 57 1016.3
20260504213013 73 201 7.0 13.0 0.00 0.00 0.00 56 1016.2
20260504211548 73 191 6.0 12.0 0.00 0.00 0.00 57 1016.3
20260504210024 73 225 6.0 15.0 0.00 0.00 0.00 61 1016.3
20260504204606 74 163 5.0 14.0 0.00 0.00 0.00 61 1016.5
20260504203031 74 186 6.0 14.0 0.00 0.00 0.00 59 1016.6